Location: Bun Machan
(52.1403°N, 7.3744°W)
Time: 18:06:04
(UTC+00:00)

Cosmos 1633 Rocket - Pass Details

Date: 14 July 2020
Orbit: 607 x 623 km, 82.5° (Epoch: 12 August)

Event Time Altitude Azimuth Distance (km) Brightness Sun altitude
Exits shadow 01:20:41 26° 209° (SSW) 1,217 4.0 -15.6°
Maximum altitude 01:23:01 63° 283° (WNW) 697 3.3 -15.5°
Drops below altitude 10° 01:27:26 10° 5° (N) 2,006 7.0 -15.4°
Sets 01:29:42 0° 9° (N) 2,919 8.4 -15.3°
